W8SZ Weather Reports


time (UTC)temp
C
wind
direction
speed
KPH
gust
KPH
rain 1hr
cm
rain 24hr
cm
rain mn
cm
humidity
%
barometer
mb
20180117151851 -10 0 11.3 17.7 0.00 0.00 0.00 91 1024.1
20180117151338 -10 0 9.7 17.7 0.00 0.00 0.00 91 1024.2
20180117150848 -10 0 8.0 14.5 0.00 0.00 0.00 91 1024.5
20180117150358 -10 0 6.4 14.5 0.00 0.00 0.00 91 1024.5
20180117145835 -10 0 6.4 14.5 0.00 0.00 0.00 91 1024.4
20180117145340 -10 0 6.4 14.5 0.00 0.00 0.00 91 1024.2
20180117144849 -10 0 8.0 19.3 0.00 0.00 0.00 91 1024.1
20180117144339 -10 0 11.3 19.3 0.00 0.00 0.00 91 1024.3
20180117143848 -10 0 9.7 19.3 0.00 0.00 0.00 92 1024.4
20180117143355 -11 0 11.3 19.3 0.00 0.00 0.00 91 1024.4
20180117142855 -11 0 8.0 14.5 0.00 0.00 0.00 92 1024.5
20180117142342 -11 0 6.4 19.3 0.00 0.00 0.00 92 1024.4
20180117141847 -11 0 8.0 19.3 0.00 0.00 0.00 92 1024.3
20180117141351 -11 0 8.0 14.5 0.00 0.00 0.00 92 1024.6
20180117140839 -11 0 8.0 12.9 0.00 0.00 0.00 91 1024.8
20180117140349 -12 0 4.8 9.7 0.00 0.00 0.00 91 1024.8
20180117135847 -12 0 6.4 9.7 0.00 0.00 0.00 91 1024.9
20180117135336 -12 0 4.8 11.3 0.00 0.00 0.00 91 1025.0
20180117134844 -12 0 4.8 11.3 0.00 0.00 0.00 92 1024.9
20180117134349 -12 0 4.8 11.3 0.00 0.00 0.00 92 1025.0
20180117133839 -12 0 6.4 11.3 0.00 0.00 0.00 92 1024.9
20180117133352 -12 0 4.8 12.9 0.00 0.00 0.00 92 1024.8
20180117132850 -12 0 6.4 12.9 0.00 0.00 0.00 93 1025.0
20180117132341 -13 0 8.0 14.5 0.00 0.00 0.00 92 1024.8
20180117131832 -13 0 6.4 14.5 0.00 0.00 0.00 92 1025.1
20180117131338 -13 0 4.8 16.1 0.00 0.00 0.00 92 1025.3
20180117130846 -13 0 4.8 16.1 0.00 0.00 0.00 92 1025.0
20180117130342 -13 0 8.0 12.9 0.00 0.00 0.00 91 1025.2
20180117125837 -13 0 4.8 9.7 0.00 0.00 0.00 91 1025.2
20180117125343 -14 0 4.8 9.7 0.00 0.00 0.00 90 1025.4
20180117124835 -14 0 4.8 9.7 0.00 0.00 0.00 90 1025.5
20180117124341 -14 0 4.8 8.0 0.00 0.00 0.00 90 1025.4
20180117123848 -14 0 6.4 8.0 0.00 0.00 0.00 90 1025.5
20180117123358 -14 0 4.8 9.7 0.00 0.00 0.00 90 1025.5
20180117122837 -14 0 3.2 11.3 0.00 0.00 0.00 89 1025.8
20180117122344 -14 0 6.4 11.3 0.00 0.00 0.00 89 1025.6
20180117121836 -14 0 4.8 11.3 0.00 0.00 0.00 89 1025.9
20180117121348 -14 0 6.4 11.3 0.00 0.00 0.00 89 1026.0
20180117120858 -13 0 4.8 9.7 0.00 0.00 0.00 89 1026.1
20180117120337 -13 0 4.8 9.7 0.00 0.00 0.00 89 1025.9
20180117115847 -13 0 4.8 11.3 0.00 0.00 0.00 90 1026.2
20180117115336 -13 0 4.8 11.3 0.00 0.00 0.00 90 1026.4
20180117114844 -13 0 4.8 11.3 0.00 0.00 0.00 90 1026.1
20180117114349 -13 0 4.8 11.3 0.00 0.00 0.00 90 1026.4
20180117113838 -13 0 6.4 9.7 0.00 0.00 0.00 91 1026.4
20180117113348 -13 0 4.8 11.3 0.00 0.00 0.00 91 1026.4
20180117112847 -13 0 6.4 11.3 0.00 0.00 0.00 91 1026.8
20180117112338 -13 0 4.8 9.7 0.00 0.00 0.00 91 1026.4
20180117111844 -13 0 4.8 12.9 0.00 0.00 0.00 91 1026.4
20180117111335 -14 0 4.8 12.9 0.00 0.00 0.00 91 1026.5
20180117110849 -14 0 3.2 12.9 0.00 0.00 0.00 91 1026.8
20180117110400 -14 0 3.2 9.7 0.00 0.00 0.00 91 1026.5
20180117105833 -14 0 3.2 9.7 0.00 0.00 0.00 91 1026.4
20180117105346 -14 0 3.2 6.4 0.00 0.00 0.00 92 1026.4
20180117104836 -14 0 3.2 6.4 0.00 0.00 0.00 92 1026.3
20180117104346 -14 0 3.2 6.4 0.00 0.00 0.00 92 1026.6
20180117103837 -15 0 3.2 6.4 0.00 0.00 0.00 92 1026.6
20180117103348 -15 0 3.2 6.4 0.00 0.00 0.00 92 1026.7
20180117102849 -15 0 4.8 8.0 0.00 0.00 0.00 93 1026.9
20180117102335 -15 0 3.2 11.3 0.00 0.00 0.00 93 1026.5
20180117101844 -15 0 4.8 11.3 0.00 0.00 0.00 93 1026.7
20180117101353 -15 0 4.8 9.7 0.00 0.00 0.00 93 1026.7
20180117100838 -15 0 3.2 8.0 0.00 0.00 0.00 93 1026.8
20180117100344 -16 0 3.2 8.0 0.00 0.00 0.00 93 1026.8
20180117095839 -16 0 4.8 6.4 0.00 0.00 0.00 92 1026.8
20180117095348 -16 0 3.2 8.0 0.00 0.00 0.00 92 1026.6
20180117094835 -16 0 4.8 8.0 0.00 0.00 0.00 92 1026.7
20180117094341 -16 0 1.6 4.8 0.00 0.00 0.00 92 1026.8
20180117093850 -16 0 1.6 4.8 0.00 0.00 0.00 91 1026.7
20180117093359 -16 0 1.6 6.4 0.00 0.00 0.00 91 1026.8
20180117092836 -16 0 0.0 8.0 0.00 0.00 0.00 91 1026.9
20180117092349 -16 0 3.2 8.0 0.00 0.00 0.00 91 1026.7
20180117091835 -16 0 1.6 6.4 0.00 0.00 0.00 91 1026.8
20180117091341 -16 0 1.6 4.8 0.00 0.00 0.00 91 1026.8
20180117090849 -16 0 1.6 4.8 0.00 0.00 0.00 91 1027.0
20180117090359 -16 0 3.2 8.0 0.00 0.00 0.00 91 1027.2
20180117085840 -16 0 3.2 9.7 0.00 0.00 0.00 91 1027.0
20180117085351 -16 0 3.2 9.7 0.00 0.00 0.00 91 1027.2
20180117084841 -16 0 1.6 11.3 0.00 0.00 0.00 91 1027.2
20180117084348 -16 0 3.2 11.3 0.00 0.00 0.00 92 1027.6
20180117083856 -16 0 3.2 6.4 0.00 0.00 0.00 91 1027.1
20180117083357 -16 0 0.0 9.7 0.00 0.00 0.00 91 1027.5
20180117082838 -16 0 4.8 9.7 0.00 0.00 0.00 91 1027.5
20180117082344 -16 0 1.6 9.7 0.00 0.00 0.00 91 1027.4
20180117081853 -16 0 1.6 4.8 0.00 0.00 0.00 91 1027.3
20180117081341 -16 0 1.6 4.8 0.00 0.00 0.00 91 1027.4
20180117080849 -16 0 1.6 4.8 0.00 0.00 0.00 91 1027.5
20180117080359 -16 0 1.6 3.2 0.00 0.00 0.00 91 1027.4
20180117075837 -16 0 1.6 4.8 0.00 0.00 0.00 91 1027.4
20180117075349 -16 0 3.2 4.8 0.00 0.00 0.00 91 1027.6
20180117074835 -16 0 3.2 4.8 0.00 0.00 0.00 91 1027.5
20180117074347 -16 0 1.6 3.2 0.00 0.00 0.00 91 1027.5
20180117073838 -16 0 0.0 1.6 0.00 0.00 0.00 91 1027.6
20180117073348 -16 0 0.0 3.2 0.00 0.00 0.00 91 1027.4
20180117072847 -16 0 0.0 3.2 0.00 0.00 0.00 91 1027.6
20180117072342 -16 0 0.0 1.6 0.00 0.00 0.00 91 1027.4
20180117071852 -16 0 0.0 3.2 0.00 0.00 0.00 91 1027.6
20180117071345 -16 0 1.6 3.2 0.00 0.00 0.00 91 1027.5
20180117070851 -16 0 1.6 3.2 0.00 0.00 0.00 91 1027.5
20180117070400 -15 0 1.6 3.2 0.00 0.00 0.00 91 1027.5
20180117065840 -15 0 1.6 4.8 0.00 0.00 0.00 91 1027.6
20180117065332 -15 0 3.2 6.4 0.00 0.00 0.00 91 1027.7
20180117064844 -15 0 3.2 6.4 0.00 0.00 0.00 91 1027.9
20180117064350 -15 0 3.2 4.8 0.00 0.00 0.00 91 1027.6
20180117063838 -15 0 1.6 4.8 0.00 0.00 0.00 91 1027.6
20180117063343 -15 0 1.6 4.8 0.00 0.00 0.00 91 1027.6
20180117062351 -15 0 1.6 6.4 0.00 0.00 0.00 91 1027.4
20180117061839 -15 0 3.2 6.4 0.00 0.00 0.00 91 1027.3
20180117061347 -15 0 1.6 6.4 0.00 0.00 0.00 91 1027.6
20180117060836 -15 0 1.6 6.4 0.00 0.00 0.00 92 1027.7
20180117060346 -14 0 1.6 6.4 0.00 0.00 0.00 92 1027.7
20180117055843 -14 0 1.6 9.7 0.00 0.00 0.00 92 1027.7
20180117055331 -14 0 1.6 9.7 0.00 0.00 0.00 92 1027.7
20180117054842 -14 0 1.6 6.4 0.00 0.00 0.00 93 1027.7
20180117054332 -14 0 3.2 8.0 0.00 0.00 0.00 93 1027.9
20180117053841 -14 0 3.2 8.0 0.00 0.00 0.00 93 1027.7
20180117053350 -14 0 1.6 8.0 0.00 0.00 0.00 93 1027.8
20180117052849 -14 0 3.2 11.3 0.00 0.00 0.00 93 1027.8
20180117052336 -14 0 3.2 11.3 0.00 0.00 0.00 93 1027.9
20180117051846 -14 0 1.6 8.0 0.00 0.00 0.00 93 1028.0
20180117051334 -14 0 3.2 8.0 0.00 0.00 0.00 93 1027.9
20180117050843 -14 0 3.2 8.0 0.00 0.00 0.00 93 1028.1
20180117045844 -14 0 1.6 8.0 0.00 0.00 0.08 93 1027.9
20180117045352 -14 0 1.6 8.0 0.00 0.00 0.08 93 1027.9
20180117044841 -15 0 1.6 6.4 0.00 0.00 0.08 93 1028.1
20180117044347 -15 0 3.2 6.4 0.00 0.00 0.08 93 1028.1
20180117043836 -15 0 3.2 6.4 0.00 0.00 0.08 93 1027.9
20180117043347 -14 0 3.2 6.4 0.00 0.00 0.08 93 1028.0
20180117042845 -14 0 1.6 6.4 0.00 0.00 0.08 93 1027.9
20180117042334 -14 0 4.8 6.4 0.00 0.00 0.08 93 1028.0
20180117041845 -14 0 3.2 9.7 0.00 0.00 0.08 93 1028.0
20180117041352 -14 0 3.2 9.7 0.00 0.00 0.08 93 1028.2
20180117040841 -14 0 3.2 4.8 0.00 0.00 0.08 93 1028.3
20180117040350 -14 0 3.2 8.0 0.00 0.00 0.08 93 1028.4
20180117035832 -14 0 3.2 8.0 0.00 0.00 0.08 93 1028.4
20180117035339 -14 0 1.6 4.8 0.00 0.00 0.08 93 1028.4
20180117034846 -14 0 1.6 3.2 0.00 0.00 0.08 93 1028.9
20180117034337 -14 0 1.6 4.8 0.00 0.00 0.08 93 1028.4
20180117033849 -14 0 1.6 6.4 0.00 0.00 0.08 94 1028.2
20180117033359 -14 0 1.6 6.4 0.00 0.00 0.08 93 1028.4
20180117032837 -14 0 1.6 3.2 0.00 0.00 0.08 93 1028.2
20180117032345 -14 0 0.0 8.0 0.00 0.00 0.08 94 1028.7
20180117031849 -13 0 1.6 8.0 0.00 0.00 0.08 94 1028.6
20180117031338 -13 0 1.6 6.4 0.00 0.00 0.08 94 1028.9
20180117030847 -13 0 3.2 6.4 0.00 0.00 0.08 93 1028.6
20180117030357 -13 0 1.6 8.0 0.00 0.00 0.08 93 1028.6
20180117025851 -13 0 1.6 8.0 0.00 0.00 0.08 94 1028.7
20180117025341 -13 0 3.2 4.8 0.00 0.00 0.08 93 1028.7
20180117024849 -13 0 0.0 3.2 0.00 0.00 0.08 93 1028.8
20180117024338 -13 0 0.0 3.2 0.00 0.00 0.08 93 1028.9
20180117023846 -13 0 0.0 9.7 0.00 0.00 0.08 93 1028.7
20180117023354 -13 0 1.6 9.7 0.00 0.00 0.08 93 1028.8
20180117022832 -13 0 1.6 6.4 0.00 0.00 0.08 93 1028.9
20180117022348 -13 0 0.0 4.8 0.00 0.00 0.08 93 1028.8
20180117021838 -13 0 1.6 4.8 0.00 0.00 0.08 93 1028.9
20180117021348 -13 0 1.6 4.8 0.00 0.00 0.08 93 1028.8
20180117020901 -13 0 1.6 6.4 0.00 0.00 0.08 93 1028.7
20180117020337 -13 0 3.2 6.4 0.00 0.00 0.08 93 1029.0
20180117015851 -13 0 1.6 6.4 0.00 0.00 0.08 93 1028.9
20180117015338 -13 0 1.6 6.4 0.00 0.00 0.08 93 1028.9
20180117014845 -13 0 1.6 11.3 0.00 0.00 0.08 94 1029.0
20180117014334 -13 0 6.4 11.3 0.00 0.00 0.08 94 1028.8
20180117013841 -13 0 3.2 8.0 0.00 0.00 0.08 94 1029.1
20180117013348 -13 0 1.6 6.4 0.00 0.00 0.08 93 1029.2
20180117012847 -13 0 1.6 6.4 0.00 0.00 0.08 94 1029.1
20180117012335 -13 0 0.0 4.8 0.00 0.00 0.08 94 1029.1
20180117011846 -13 0 1.6 4.8 0.00 0.00 0.08 94 1029.2
20180117011333 -13 0 1.6 6.4 0.00 0.00 0.08 93 1029.1
20180117010843 -13 0 1.6 6.4 0.00 0.00 0.08 93 1029.2
20180117010353 -13 0 3.2 8.0 0.00 0.00 0.08 93 1029.5
20180117005851 -13 0 0.0 8.0 0.00 0.00 0.08 93 1029.2
20180117005339 -13 0 3.2 6.4 0.00 0.00 0.08 92 1029.2
20180117004847 -13 0 1.6 6.4 0.00 0.00 0.08 92 1028.8
20180117004335 -13 0 0.0 4.8 0.00 0.00 0.08 92 1029.3
20180117003843 -13 0 1.6 3.2 0.00 0.00 0.08 92 1029.2
20180117003351 -13 0 0.0 3.2 0.00 0.00 0.08 92 1029.1
20180117002849 -13 0 0.0 3.2 0.00 0.00 0.08 92 1029.1
20180117002337 -13 0 0.0 3.2 0.00 0.00 0.08 92 1028.8
20180117001847 -13 0 0.0 3.2 0.00 0.00 0.08 92 1028.8
20180117001334 -13 0 0.0 4.8 0.00 0.00 0.08 92 1029.1
20180117000846 -13 0 1.6 4.8 0.00 0.00 0.08 92 1028.7
20180117000354 -12 0 1.6 3.2 0.00 0.00 0.08 92 1029.0
20180116235845 -12 0 1.6 3.2 0.00 0.00 0.08 91 1029.0
20180116235335 -12 0 1.6 1.6 0.00 0.00 0.08 91 1028.9
20180116234844 -12 0 0.0 3.2 0.00 0.00 0.08 91 1029.0
20180116234335 -12 0 0.0 3.2 0.00 0.00 0.08 91 1029.0
20180116233843 -12 0 0.0 3.2 0.00 0.00 0.08 91 1028.9
20180116233342 -12 0 0.0 3.2 0.00 0.00 0.08 91 1028.8
20180116232836 -12 0 0.0 3.2 0.00 0.00 0.08 90 1029.0
20180116232346 -12 0 0.0 3.2 0.00 0.00 0.08 90 1028.9
20180116231837 -11 0 0.0 3.2 0.00 0.00 0.08 90 1028.7
20180116231344 -11 0 0.0 3.2 0.00 0.00 0.08 90 1028.8
20180116230838 -11 0 0.0 3.2 0.00 0.00 0.08 89 1029.0
20180116230349 -11 0 0.0 3.2 0.00 0.00 0.08 89 1028.9
20180116225847 -11 0 1.6 3.2 0.00 0.00 0.08 88 1028.9
20180116225337 -11 0 1.6 4.8 0.00 0.00 0.08 87 1028.8
20180116224847 -11 0 0.0 4.8 0.00 0.00 0.08 87 1028.8
20180116224338 -11 0 1.6 4.8 0.00 0.00 0.08 87 1028.5
20180116223846 -11 0 3.2 4.8 0.00 0.00 0.08 86 1028.4
20180116223356 -11 0 1.6 4.8 0.00 0.00 0.08 85 1028.3
20180116222851 -10 0 1.6 8.0 0.00 0.00 0.08 85 1028.7
20180116222339 -10 0 0.0 8.0 0.00 0.00 0.08 85 1028.8
20180116221832 -10 0 1.6 6.4 0.00 0.00 0.08 84 1029.0
20180116221342 -10 0 1.6 9.7 0.00 0.00 0.08 84 1028.4
20180116220851 -10 0 3.2 9.7 0.00 0.00 0.08 84 1028.6
20180116220329 -10 0 3.2 12.9 0.00 0.00 0.08 84 1028.5
20180116215841 -10 0 3.2 12.9 0.00 0.00 0.08 84 1028.7
20180116215352 -10 0 4.8 12.9 0.00 0.00 0.08 83 1028.2
20180116214840 -10 0 4.8 17.7 0.00 0.00 0.08 83 1028.3
20180116214347 -10 0 3.2 25.7 0.00 0.00 0.08 83 1028.4
20180116213834 -9 0 11.3 0.0 0.00 0.00 0.08 82 1028.3
20180116213346 -9 0 4.8 0.0 0.00 0.00 0.08 82 1028.1
20180116212846 -9 0 6.4 0.0 0.00 0.00 0.08 83 1028.1
20180116212337 -9 0 6.4 0.0 0.00 0.00 0.08 83 1028.0
20180116211848 -9 0 3.2 0.0 0.00 0.00 0.08 82 1028.3
20180116211338 -8 0 3.2 0.0 0.00 0.00 0.08 82 1028.2
20180116210848 -8 0 1.6 0.0 0.00 0.00 0.08 81 1027.8
20180116210359 -8 0 6.4 0.0 0.00 0.00 0.08 81 1027.8
20180116205839 -8 0 9.7 0.0 0.00 0.00 0.08 81 1027.9
20180116205331 -8 0 6.4 0.0 0.00 0.00 0.08 81 1027.9
20180116204841 -8 0 0.0 0.0 0.00 0.00 0.08 81 1027.8
20180116204332 -8 0 8.0 0.0 0.00 0.00 0.08 81 1027.9
20180116203842 -8 0 8.0 0.0 0.00 0.00 0.08 81 1027.8
20180116203355 -8 0 11.3 0.0 0.00 0.00 0.08 81 1027.5
20180116202834 -8 0 19.3 0.0 0.00 0.00 0.08 80 1027.7
20180116202341 -8 0 4.8 0.0 0.00 0.00 0.08 80 1027.5
20180116201834 -8 0 8.0 0.0 0.00 0.00 0.08 80 1027.5
20180116201346 -8 0 8.0 0.0 0.00 0.00 0.08 80 1027.5
20180116200839 -7 0 11.3 0.0 0.00 0.00 0.08 80 1027.7
20180116200349 -7 0 11.3 0.0 0.00 0.00 0.08 80 1027.8
20180116195850 -7 0 17.7 0.0 0.00 0.00 0.08 79 1027.5
20180116195342 -7 0 14.5 0.0 0.00 0.00 0.08 80 1027.4
20180116194833 -7 0 12.9 0.0 0.00 0.00 0.08 79 1027.4
20180116194343 -7 0 9.7 0.0 0.00 0.00 0.08 79 1027.7
20180116193833 -7 0 6.4 0.0 0.00 0.00 0.08 78 1027.1
20180116193345 -7 0 8.0 0.0 0.00 0.00 0.08 78 1027.1
20180116192847 -7 0 14.5 0.0 0.00 0.00 0.08 79 1027.3
20180116192340 -7 0 8.0 0.0 0.00 0.00 0.08 79 1027.3
20180116191848 -7 0 9.7 0.0 0.00 0.00 0.08 79 1026.9
20180116191338 -7 0 3.2 0.0 0.00 0.00 0.08 78 1027.2
20180116190847 -7 0 17.7 0.0 0.00 0.00 0.08 79 1027.0
20180116190400 -7 0 17.7 25.7 0.00 0.08 0.08 80 1027.3
20180116185837 -6 0 12.9 27.4 0.00 0.08 0.08 79 1027.1
20180116185346 -6 0 12.9 27.4 0.00 0.08 0.08 79 1027.3
20180116184836 -6 0 12.9 24.1 0.00 0.08 0.08 80 1027.1
20180116184343 -6 0 12.9 22.5 0.00 0.08 0.08 79 1027.1
20180116183851 -6 0 8.0 17.7 0.00 0.08 0.08 79 1026.9
20180116183355 -7 0 11.3 19.3 0.00 0.08 0.08 78 1027.4
20180116182851 -6 0 14.5 19.3 0.00 0.08 0.08 79 1027.2
20180116182341 -6 0 11.3 19.3 0.00 0.08 0.08 81 1027.3
20180116181848 -6 0 11.3 19.3 0.00 0.08 0.08 83 1027.4
20180116181338 -6 0 11.3 24.1 0.00 0.08 0.08 83 1027.3
20180116180847 -6 0 16.1 24.1 0.00 0.08 0.08 83 1027.4
20180116180356 -6 0 12.9 20.9 0.00 0.08 0.08 85 1027.2
20180116175833 -6 0 8.0 22.5 0.00 0.08 0.08 86 1027.1
20180116175340 -6 0 11.3 22.5 0.00 0.08 0.08 84 1027.4
20180116174850 -6 0 8.0 24.1 0.00 0.08 0.08 84 1027.3
20180116174339 -6 0 16.1 24.1 0.00 0.08 0.08 84 1027.4
20180116173846 -6 0 14.5 22.5 0.00 0.08 0.08 84 1027.4
20180116173355 -6 0 12.9 24.1 0.00 0.08 0.08 85 1027.6
20180116172833 -6 0 19.3 24.1 0.00 0.08 0.08 86 1027.4
20180116172343 -6 0 9.7 20.9 0.00 0.08 0.08 87 1027.3
20180116171852 -6 0 6.4 25.7 0.00 0.08 0.08 88 1027.7
20180116171338 -6 0 11.3 25.7 0.00 0.08 0.08 88 1027.5
20180116170847 -6 0 11.3 20.9 0.00 0.08 0.08 89 1027.6
20180116170358 -7 0 12.9 20.9 0.00 0.08 0.08 90 1027.8
20180116165838 -7 0 9.7 22.5 0.00 0.08 0.08 89 1027.8
20180116165342 -7 0 8.0 22.5 0.00 0.08 0.08 90 1027.8
20180116164848 -7 0 8.0 22.5 0.00 0.08 0.08 91 1028.0
20180116164335 -7 0 11.3 22.5 0.00 0.08 0.08 90 1028.1
20180116163844 -7 0 9.7 22.5 0.00 0.08 0.08 90 1028.0
20180116163350 -6 0 8.0 22.5 0.00 0.08 0.08 90 1028.2
20180116162851 -6 0 9.7 22.5 0.00 0.08 0.08 89 1028.2
20180116162339 -6 0 6.4 14.5 0.00 0.08 0.08 88 1028.1
20180116161847 -6 0 3.2 12.9 0.00 0.08 0.08 87 1028.2
20180116161336 -6 0 6.4 12.9 0.00 0.08 0.08 88 1027.9
20180116160848 -6 0 8.0 14.5 0.00 0.08 0.08 88 1028.0
20180116160354 -6 0 6.4 14.5 0.00 0.08 0.08 88 1028.2
20180116155849 -6 0 8.0 19.3 0.00 0.08 0.08 87 1028.1
20180116155337 -6 0 11.3 19.3 0.00 0.08 0.08 86 1027.8
20180116154843 -6 0 6.4 17.7 0.00 0.08 0.08 85 1027.9
20180116154349 -6 0 6.4 19.3 0.00 0.08 0.08 85 1027.8
20180116153838 -6 0 6.4 20.9 0.00 0.08 0.08 83 1027.8
20180116153350 -6 0 16.1 25.7 0.00 0.08 0.08 83 1027.5
20180116152849 -6 0 12.9 25.7 0.00 0.08 0.08 83 1027.7